sat.trackr.live / text

‹ back to catalog

METEOSAT-11 (MSG-4)

NORAD 40732 · 2015-034A

PAYLOAD ACTIVE UNKNOWN

§ Identity

Operator
Country
EUME
Launch date
2015-07-15
Launch site
FRGUI
Launch vehicle
Mass (kg)
RCS (m²)
4.00

Purposes: comms, earth_obs

External: N2YO · Heavens-Above · Gunter

§ Orbital elements

Epoch: 2026-09-19T23:51:26.700192Z

Period
1,436.06 min
Inclination
3.4336°
Eccentricity
0.0000536
Mean motion
1.00274654 rev/d
Perigee alt
35,783.5 km
Apogee alt
35,788.1 km
Semi-major
42,163.9 km
B*
0.0000e+0
RAAN
70.4184°
Arg perigee
85.7474°
Mean anomaly
209.8731°
Rev number
816

§ Raw data

METEOSAT-11 (MSG-4)1 40732U 15034A   26262.99405903  .00000059  00000+0  00000+0 0  99982 40732   3.4336  70.4184 0000536  85.7474 209.8731  1.00274654  8164

JSON: /api/v1/satellites/40732 · /tle

For live sub-satellite position, see the globe view (requires WebGL).

§ Visibility from observer

Set your observer location to see the next 7 days of passes ≥ 10°. The values pass through the URL so the page stays shareable.

No JS? Fill the form by hand. The geolocation button needs JavaScript.